DECAYED

CZ-6A DEB, 54396 (Decayed)

Orbit data source: Space-Track

CZ-6A DEB, 54396 was space debris in SSO originally from a launch on Fri, 11 Nov 2022 UTC launched from the Taiyaun Space Center, China (TSC). Debris objects in space refer to the collection of defunct objects orbiting the Earth. Examples of debris include non-operational satellites, rocket bodies, and fragments generated from explosions, collisions, or faulty payload assembly.

Loading next visibility...
Identifier
54396, 2022-151DU
Orbit
Decayed
Country
Flag of CNCN / PRC
Related business
Manufacturer
SAST
Mission
Decayed spacecraft
Bus & Motor
Unknown
Mass
Unknown
Launch date (UTC)
2022-11-11 (4 years ago)
Launch vehicle
Unknown
Launch site
Taiyaun Space Center, China (TSC)
Object type
Payload
Rocket body
Debris
Shape & HBR
Unknown shape, 0.1 m
Radar Cross Section
Medium (>0.1 m² and <1 m²)

Expand to show TLE details & history
Last TLE update: 1 year ago

TLE from 1 year ago
0 CZ-6A DEB
1 54396U 22151DU  25081.98454434  .02329326  00000-0  16882-1 0  9998
2 54396  98.4636 150.2385 0010990  49.2140 311.0071 15.70386471126923
Epoch: 2025-03-22T23:37Z
TLE epoch observation values (Epoch: 2025-03-22T23:37:44.630Z)
Latitude
-0.00003°
Longitude
-24.91922°
Altitude
356.063 km
Speed
7.698 km/s
True Right ascension
10h 00m 57s
True Declination
0° 00' 00"
Sunlit
Object was in full shadow at epoch
Visualization orbit readout
Latitude
Unknown
Longitude
Unknown
Altitude
Unknown
Speed
Unknown
Apparent Right ascension
Unknown
Apparent Declination
Unknown
Sunlit
N/A
Visualization observer readout
Local Sidereal Time
03:52:21
Azimuth
Unknown
Elevation
Unknown
Doppler factor
Unknown
Orbital elements
Apogee altitude
362.14 km
Perigee altitude
347.341 km
Semi-major axis
6,732.877 km
Eccentricity
0.0011
Inclination
98.4636°
RAAN
150.2385°
Arg. of periapsis
49.214°
True anomaly
310.91198°
Mean anomaly
311.0071°
Eccentric anomaly
310.95955°
Mean motion
3.92864 °/min
Orbital period
91.63 mins
BSTAR
0.016882
Loading maneuver chart data...
Computing Atmospheric mass density...
Loading historical data...
Loading historical data...
Loading historical data...
Loading historical data...
Loading historical data...
Loading historical data...
Loading historical data...

Documentation

Showing up to 5 results
|